{"data":{"norad_id":53853,"intl_designator":"2022-114AM","name":"STARLINK-4794","alt_names":[],"object_type":"PAYLOAD","status":"ACTIVE","operator":null,"country":"US","launch_date":"2022-09-19","launch_site_code":"AFETR","launch_vehicle":null,"mission":null,"orbit_class":"UNKNOWN","rcs_meters":null,"size_class":null,"mass_kg":null,"dimensions":null,"purposes":["comms"],"wikipedia_slug":null,"has_3d_model":false,"image_url":null,"decayed_at":null,"tle_current":{"epoch":"2026-05-25T04:21:57.032640Z","epoch_age_seconds":59445,"freshness":"FRESH","line1":"1 53853U 22114AM  26145.18191010  .00000634  00000+0  57891-4 0  9999","line2":"2 53853  53.2165 310.4277 0001395  87.1602 272.9550 15.08842737204522","mean_motion":15.08842737,"eccentricity":0.0001395,"inclination_deg":53.2165,"raan_deg":310.4277,"arg_perigee_deg":87.1602,"mean_anomaly_deg":272.955,"bstar":5.7891e-5,"rev_number":20452,"period_min":95.437381556617,"perigee_km":538.76997991549,"apogee_km":540.70006620992,"semimajor_km":6917.8720230627,"source":"CELESTRAK","updated_at":"2026-05-25T13:38:17.576993Z"}}}